| time (UTC) | temp F | wind direction | speed MPH | gust MPH | rain 1hr in | rain 24hr in | rain mn in | humidity % | barometer mb |
| 20260509104533 | 48 | 197 | 0.0 | 1.0 | 0.00 | 0.00 | 0.00 | 95 | 1013.2 |
| 20260509103035 | 47 | 197 | 0.0 | 1.0 | 0.00 | 0.00 | 0.00 | 94 | 1013.2 |
| 20260509101531 | 48 | 197 | 0.0 | 1.0 | 0.00 | 0.00 | 0.00 | 93 | 1012.8 |
| 20260509100031 | 48 | 197 | 0.0 | 0.0 | 0.00 | 0.00 | 0.00 | 93 | 1012.9 |
| 20260509094525 | 48 | 197 | 0.0 | 0.0 | 0.00 | 0.00 | 0.00 | 92 | 1012.7 |
| 20260509093023 | 49 | 197 | 0.0 | 0.0 | 0.00 | 0.00 | 0.00 | 92 | 1012.9 |
| 20260509091521 | 49 | 197 | 0.0 | 0.0 | 0.00 | 0.00 | 0.00 | 91 | 1013.2 |
| 20260509090019 | 50 | 197 | 0.0 | 0.0 | 0.00 | 0.00 | 0.00 | 90 | 1012.9 |
| 20260509084520 | 50 | 197 | 0.0 | 0.0 | 0.00 | 0.00 | 0.00 | 91 | 1013.1 |
| 20260509083015 | 50 | 197 | 0.0 | 0.0 | 0.00 | 0.00 | 0.00 | 89 | 1013.2 |
| 20260509081513 | 50 | 197 | 0.0 | 0.0 | 0.00 | 0.00 | 0.00 | 88 | 1013.4 |
| 20260509080011 | 51 | 197 | 0.0 | 2.0 | 0.00 | 0.00 | 0.00 | 86 | 1013.5 |
| 20260509074509 | 51 | 197 | 0.0 | 1.0 | 0.00 | 0.00 | 0.00 | 86 | 1013.6 |
| 20260509073007 | 51 | 197 | 0.0 | 2.0 | 0.00 | 0.00 | 0.00 | 84 | 1013.5 |
| 20260509071504 | 52 | 197 | 0.0 | 2.0 | 0.00 | 0.00 | 0.00 | 82 | 1013.6 |
| 20260509070004 | 52 | 197 | 0.0 | 2.0 | 0.00 | 0.00 | 0.00 | 81 | 1013.8 |
| 20260509064503 | 52 | 197 | 0.0 | 1.0 | 0.00 | 0.00 | 0.00 | 80 | 1013.6 |
| 20260509063111 | 53 | 197 | 0.0 | 2.0 | 0.00 | 0.00 | 0.00 | 80 | 1014.0 |
| 20260509061558 | 53 | 197 | 0.0 | 2.0 | 0.00 | 0.00 | 0.00 | 80 | 1014.4 |
| 20260509054611 | 52 | 197 | 0.0 | 1.0 | 0.00 | 0.00 | 0.00 | 79 | 1014.6 |
| 20260509053132 | 53 | 197 | 0.0 | 1.0 | 0.00 | 0.00 | 0.00 | 79 | 1014.7 |
| 20260509051551 | 53 | 197 | 0.0 | 1.0 | 0.00 | 0.00 | 0.00 | 79 | 1015.1 |
| 20260509050051 | 53 | 197 | 0.0 | 0.0 | 0.00 | 0.00 | 0.00 | 78 | 1015.3 |
| 20260509044551 | 53 | 197 | 0.0 | 0.0 | 0.00 | 0.00 | 0.00 | 78 | 1015.4 |
| 20260509043104 | 52 | 197 | 0.0 | 1.0 | 0.00 | 0.00 | 0.00 | 80 | 1015.2 |
| 20260509041558 | 52 | 197 | 0.0 | 0.0 | 0.00 | 0.00 | 0.00 | 81 | 1015.1 |
| 20260509040050 | 53 | 197 | 0.0 | 0.0 | 0.00 | 0.00 | 0.00 | 80 | 1014.9 |
| 20260509034559 | 53 | 197 | 0.0 | 0.0 | 0.00 | 0.00 | 0.00 | 81 | 1015.2 |
| 20260509033042 | 53 | 197 | 0.0 | 0.0 | 0.00 | 0.00 | 0.00 | 79 | 1015.1 |
| 20260509031540 | 53 | 197 | 0.0 | 0.0 | 0.00 | 0.00 | 0.00 | 76 | 1015.1 |
| 20260509030040 | 53 | 197 | 0.0 | 0.0 | 0.00 | 0.00 | 0.00 | 76 | 1015.3 |
| 20260509024540 | 53 | 197 | 0.0 | 0.0 | 0.00 | 0.00 | 0.00 | 76 | 1015.2 |
| 20260509023039 | 53 | 197 | 0.0 | 0.0 | 0.00 | 0.00 | 0.00 | 76 | 1015.4 |
| 20260509021539 | 54 | 197 | 0.0 | 0.0 | 0.00 | 0.00 | 0.00 | 78 | 1015.6 |
| 20260509020050 | 54 | 197 | 0.0 | 0.0 | 0.00 | 0.00 | 0.00 | 77 | 1015.5 |
| 20260509014537 | 55 | 197 | 0.0 | 0.0 | 0.00 | 0.00 | 0.00 | 77 | 1015.5 |
| 20260509013047 | 55 | 197 | 0.0 | 0.0 | 0.00 | 0.00 | 0.00 | 74 | 1015.3 |
| 20260509011537 | 56 | 197 | 0.0 | 0.0 | 0.00 | 0.00 | 0.00 | 73 | 1015.2 |
| 20260509010049 | 56 | 197 | 0.0 | 0.0 | 0.00 | 0.00 | 0.00 | 71 | 1015.2 |
| 20260509004535 | 58 | 197 | 0.0 | 0.0 | 0.00 | 0.00 | 0.00 | 69 | 1015.1 |
| 20260509003035 | 59 | 197 | 0.0 | 0.0 | 0.00 | 0.00 | 0.00 | 66 | 1015.0 |
| 20260509001534 | 60 | 197 | 0.0 | 0.0 | 0.00 | 0.00 | 0.00 | 61 | 1014.8 |
| 20260509000034 | 61 | 197 | 0.0 | 0.0 | 0.00 | 0.00 | 0.00 | 58 | 1014.8 |
| 20260508234536 | 63 | 197 | 0.0 | 0.0 | 0.00 | 0.00 | 0.00 | 53 | 1014.8 |
| 20260508233033 | 65 | 196 | 0.0 | 0.0 | 0.00 | 0.00 | 0.00 | 51 | 1014.9 |
| 20260508231532 | 66 | 196 | 0.0 | 3.0 | 0.00 | 0.00 | 0.00 | 44 | 1015.1 |
| 20260508230044 | 67 | 177 | 1.0 | 4.0 | 0.00 | 0.00 | 0.00 | 42 | 1014.9 |
| 20260508224538 | 67 | 183 | 1.0 | 5.0 | 0.00 | 0.00 | 0.00 | 40 | 1014.7 |
| 20260508223036 | 68 | 161 | 1.0 | 5.0 | 0.00 | 0.00 | 0.00 | 39 | 1014.9 |
| 20260508221542 | 68 | 200 | 1.0 | 4.0 | 0.00 | 0.00 | 0.00 | 39 | 1014.7 |
| 20260508220033 | 68 | 194 | 1.0 | 4.0 | 0.00 | 0.00 | 0.00 | 39 | 1014.5 |
| 20260508214530 | 68 | 170 | 1.0 | 5.0 | 0.00 | 0.03 | 0.00 | 37 | 1014.7 |
| 20260508213029 | 69 | 199 | 1.0 | 5.0 | 0.00 | 0.03 | 0.00 | 40 | 1014.8 |
| 20260508211528 | 69 | 240 | 1.0 | 4.0 | 0.00 | 0.03 | 0.00 | 37 | 1014.7 |
| 20260508210029 | 69 | 199 | 0.0 | 4.0 | 0.00 | 0.03 | 0.00 | 37 | 1014.9 |
| 20260508204528 | 69 | 180 | 1.0 | 7.0 | 0.00 | 0.06 | 0.00 | 33 | 1015.0 |
| 20260508203027 | 70 | 297 | 0.0 | 8.0 | 0.00 | 0.06 | 0.00 | 37 | 1015.3 |
| 20260508201528 | 70 | 147 | 1.0 | 6.0 | 0.00 | 0.06 | 0.00 | 36 | 1015.4 |
| 20260508200026 | 70 | 111 | 2.0 | 7.0 | 0.00 | 0.06 | 0.00 | 35 | 1015.4 |
| 20260508194526 | 70 | 238 | 1.0 | 4.0 | 0.00 | 0.06 | 0.00 | 34 | 1015.3 |
| 20260508193024 | 70 | 171 | 1.0 | 5.0 | 0.00 | 0.06 | 0.00 | 34 | 1015.8 |
| 20260508191522 | 69 | 223 | 2.0 | 5.0 | 0.00 | 0.06 | 0.00 | 34 | 1015.9 |
| 20260508190021 | 69 | 208 | 1.0 | 5.0 | 0.00 | 0.06 | 0.00 | 33 | 1016.3 |
| 20260508184523 | 69 | 236 | 2.0 | 7.0 | 0.00 | 0.06 | 0.00 | 32 | 1016.6 |
| 20260508183018 | 69 | 225 | 1.0 | 3.0 | 0.00 | 0.06 | 0.00 | 39 | 1016.7 |
| 20260508181518 | 69 | 173 | 1.0 | 8.0 | 0.00 | 0.06 | 0.00 | 37 | 1016.9 |
| 20260508180017 | 68 | 5 | 1.0 | 6.0 | 0.00 | 0.06 | 0.00 | 40 | 1016.8 |
| 20260508174516 | 68 | 151 | 0.0 | 3.0 | 0.00 | 0.06 | 0.00 | 40 | 1017.1 |
| 20260508173011 | 67 | 92 | 1.0 | 4.0 | 0.00 | 0.06 | 0.00 | 45 | 1017.3 |
| 20260508171511 | 67 | 180 | 1.0 | 4.0 | 0.00 | 0.06 | 0.00 | 42 | 1017.3 |
| 20260508170010 | 66 | 159 | 2.0 | 6.0 | 0.00 | 0.06 | 0.00 | 40 | 1017.4 |
| 20260508164512 | 67 | 240 | 0.0 | 3.0 | 0.00 | 0.06 | 0.00 | 42 | 1017.7 |
| 20260508163004 | 65 | 94 | 0.0 | 3.0 | 0.00 | 0.06 | 0.00 | 47 | 1017.9 |
| 20260508161507 | 64 | 297 | 1.0 | 5.0 | 0.00 | 0.06 | 0.00 | 48 | 1018.1 |
| 20260508160001 | 64 | 344 | 0.0 | 5.0 | 0.00 | 0.13 | 0.00 | 53 | 1018.3 |
| 20260508154601 | 64 | 159 | 1.0 | 4.0 | 0.00 | 0.13 | 0.00 | 46 | 1018.4 |
| 20260508153058 | 64 | 250 | 0.0 | 3.0 | 0.00 | 0.13 | 0.00 | 55 | 1018.6 |
| 20260508151558 | 63 | 192 | 0.0 | 3.0 | 0.00 | 0.13 | 0.00 | 53 | 1018.7 |
| 20260508150052 | 61 | 219 | 1.0 | 6.0 | 0.00 | 0.13 | 0.00 | 54 | 1018.8 |
| 20260508144548 | 60 | 101 | 0.0 | 2.0 | 0.00 | 0.16 | 0.00 | 58 | 1018.7 |
| 20260508143045 | 60 | 31 | 0.0 | 2.0 | 0.00 | 0.16 | 0.00 | 66 | 1018.6 |
| 20260508141541 | 58 | 166 | 0.0 | 2.0 | 0.00 | 0.16 | 0.00 | 74 | 1018.6 |
| 20260508140039 | 56 | 360 | 0.0 | 3.0 | 0.00 | 0.16 | 0.00 | 77 | 1018.5 |
| 20260508134535 | 53 | 271 | 0.0 | 2.0 | 0.00 | 0.26 | 0.00 | 84 | 1018.4 |
| 20260508133031 | 51 | 201 | 0.0 | 1.0 | 0.00 | 0.26 | 0.00 | 92 | 1018.3 |
| 20260508131525 | 49 | 196 | 0.0 | 2.0 | 0.00 | 0.26 | 0.00 | 95 | 1018.3 |
| 20260508130025 | 48 | 55 | 0.0 | 2.0 | 0.00 | 0.26 | 0.00 | 98 | 1018.1 |
| 20260508124522 | 47 | 154 | 0.0 | 2.0 | 0.00 | 0.31 | 0.00 | 98 | 1018.1 |
| 20260508123022 | 46 | 154 | 0.0 | 1.0 | 0.00 | 0.31 | 0.00 | 98 | 1018.0 |
| 20260508121520 | 45 | 154 | 0.0 | 0.0 | 0.00 | 0.31 | 0.00 | 98 | 1017.7 |
| 20260508120018 | 45 | 154 | 0.0 | 0.0 | 0.00 | 0.31 | 0.00 | 98 | 1017.4 |
| 20260508114517 | 44 | 154 | 0.0 | 0.0 | 0.00 | 0.33 | 0.00 | 98 | 1017.3 |
| 20260508113018 | 44 | 154 | 0.0 | 1.0 | 0.00 | 0.33 | 0.00 | 98 | 1017.2 |
| 20260508111520 | 43 | 154 | 0.0 | 0.0 | 0.00 | 0.33 | 0.00 | 97 | 1016.9 |
| 20260508110012 | 43 | 154 | 0.0 | 0.0 | 0.00 | 0.33 | 0.00 | 97 | 1016.7 |